Ponca City, OK

9:14 PM CST on December 03, 2016 (GMT -0600)
Ponca City Municipal

Weather History for KPNC - November, 2012

Change the Weather History Date:

Thursday, November 29, 2012

  Actual Average Record
Temperature  
Mean Temperature 59 °F -  
Max Temperature 72 °F 55 °F 77 °F (1975)
Min Temperature 46 °F 29 °F 11 °F (1955)
Degree Days  
Heating Degree Days 6    
Growing Degree Days 9 (Base 50)    
Moisture  
Dew Point 36 °F    
Average Humidity 46    
Maximum Humidity 66    
Minimum Humidity 25    
Precipitation  
Precipitation 0.00 in - - ()
Sea Level Pressure  
Sea Level Pressure 30.03 in    
Wind  
Wind Speed 12 mph (South)    
Max Wind Speed 15 mph    
Max Gust Speed 29 mph    
Visibility 10 miles    
Events      
Averages and records for this station are not official NWS values.
T = Trace of Precipitation, MM = Missing Value Source: NWS Daily Summary

Daily Weather History Graph

Daily Weather History Graph

Search for Another Location

Airport or City:

Trip Planner

Search our weather history database for the weather conditions in past years. The results will help you decide how hot, cold, wet, or windy it might be!

Date:

Astronomy

Nov. 29, 2012 Rise Set
Actual Time 7:20 AM CST 5:12 PM CST
Civil Twilight 6:52 AM CST 5:41 PM CST
Nautical Twilight 6:20 AM CST 6:13 PM CST
Astronomical Twilight 5:49 AM CST 6:44 PM CST
Moon 6:16 PM CST (11/29) 8:08 AM CST (11/29)
Length of Visible Light 10h 48m
Length of Day
9h 51m
Full, 99% of the Moon is Illuminated
Nov 29
Full
Dec 6
Last Quarter
Dec 13
New
Dec 19
First Quarter
Dec 28
Full

Hourly Weather History & Observations

Time (CST) Temp. Dew Point Humidity Pressure Visibility Wind Dir Wind Speed Gust Speed Precip Events Conditions
12:53 AM 48.0 °F 33.1 °F 56% 30.11 in 10.0 mi SSE 15.0 mph - N/A   Clear
1:53 AM 50.0 °F 35.1 °F 57% 30.09 in 10.0 mi SSE 15.0 mph 26.5 mph N/A   Clear
2:53 AM 50.0 °F 35.1 °F 57% 30.09 in 10.0 mi South 11.5 mph 21.9 mph N/A   Clear
3:53 AM 50.0 °F 35.1 °F 57% 30.08 in 10.0 mi South 10.4 mph 17.3 mph N/A   Clear
4:53 AM 50.0 °F 36.0 °F 59% 30.07 in 10.0 mi South 10.4 mph - N/A   Clear
5:53 AM 48.9 °F 36.0 °F 61% 30.08 in 10.0 mi South 10.4 mph 18.4 mph N/A   Clear
6:53 AM 46.9 °F 36.0 °F 66% 30.07 in 10.0 mi SSE 11.5 mph - N/A   Clear
7:53 AM 48.0 °F 37.0 °F 66% 30.07 in 10.0 mi SSE 12.7 mph - N/A   Clear
8:53 AM 50.0 °F 37.9 °F 63% 30.06 in 10.0 mi South 12.7 mph 23.0 mph N/A   Clear
9:53 AM 55.4 °F 39.2 °F 54% 30.06 in 10.0 mi South 11.5 mph 19.6 mph N/A   Clear
10:53 AM 62.1 °F 41.0 °F 46% 30.05 in 10.0 mi South 9.2 mph - N/A   Clear
11:53 AM 66.0 °F 42.1 °F 42% 30.03 in 10.0 mi South 13.8 mph 20.7 mph N/A   Clear
12:53 PM 70.0 °F 42.1 °F 36% 29.99 in 10.0 mi SSW 13.8 mph 28.8 mph N/A   Clear
1:53 PM 72.0 °F 39.9 °F 31% 29.96 in 10.0 mi South 12.7 mph 23.0 mph N/A   Clear
2:53 PM 72.0 °F 35.1 °F 26% 29.93 in 10.0 mi South 11.5 mph 24.2 mph N/A   Clear
3:53 PM 72.0 °F 34.0 °F 25% 29.93 in 10.0 mi South 12.7 mph 25.3 mph N/A   Clear
4:53 PM 68.0 °F 36.0 °F 31% 29.95 in 10.0 mi South 5.8 mph - N/A   Clear
5:53 PM 63.0 °F 35.1 °F 35% 29.98 in 10.0 mi South 6.9 mph - N/A   Clear
6:53 PM 62.1 °F 35.1 °F 37% 29.99 in 10.0 mi South 6.9 mph - N/A   Clear
7:53 PM 60.1 °F 30.9 °F 33% 30.01 in 10.0 mi South 6.9 mph - N/A   Clear
8:53 PM 59.0 °F 33.1 °F 38% 30.01 in 10.0 mi South 11.5 mph 19.6 mph N/A   Clear
9:53 PM 55.9 °F 33.1 °F 42% 30.02 in 10.0 mi South 9.2 mph - N/A   Clear
10:53 PM 55.9 °F 33.1 °F 42% 30.03 in 10.0 mi SSE 11.5 mph - N/A   Clear
11:53 PM 52.0 °F 32.0 °F 47% 30.03 in 10.0 mi SSE 9.2 mph - N/A   Clear